COSMOS 2534 (758)

Last updated on Mon Sep 07 2026 00:03:21 GMT+0000 (Coordinated Universal Time)

1 44299U 19030A 26249.42509404 .00000000 00000+0 00000+0 0 9990 2 44299 64.3702 189.8826 0012097 275.5799 266.6031 2.13101913 56654
UTC large
Height (km)
Speed (km/s)
/
Latitude / Longitude
Inclination (degrees)
Orbital Period (minutes)
Azimuth
Elevation
Range (km)
Doppler Factor

Next 0 passes for location: London (51.5072 / 0.1276)

No passes found over London.
COSMOS 2534 (758)